Regional Weather Roundup
Issued by NWS Upton, NY

Current Version | Previous Version | Text Only | Print | Product List | Glossary On
Versions: 1 2 3 4 5 6 7 8 9 10 11 12 13 14 15 16 17 18 19 20 21 22 23 24 25 26 27
000
ASUS41 KOKX 271805
RWROKX

REGIONAL WEATHER ROUNDUP
NATIONAL WEATHER SERVICE NEW YORK NY
200 PM EDT FRI MAY 27 2016

NOTE: "FAIR" INDICATES FEW OR NO CLOUDS BELOW 12,000 FEET WITH NO
SIGNIFICANT WEATHER AND/OR OBSTRUCTIONS TO VISIBILITY.

NYZ071-072-176-178-NJZ106-104-271900-
NEW YORK CITY METRO AREA


CITY           SKY/WX    TMP DP  RH WIND       PRES   REMARKS
CENTRAL PARK   SUNNY     85  64  49 VRB3      30.07S
LAGUARDIA APRT MOSUNNY   86  70  58 S12       30.04F HX  90
KENNEDY INTL   MOSUNNY   75  63  66 S9        30.08S
NEWARK/LIBERTY MOSUNNY   84  65  52 SE12      30.03F
BRNX BOT. GARD   N/A     84  64  51 NE5       30.04F
TETERBORO      SUNNY     90  64  42 S14G23    30.01F HX  91
$$

NYZ177-179-078>081-271900-
LONG ISLAND NEW YORK

CITY           SKY/WX    TMP DP  RH WIND       PRES   REMARKS
FARMINGDALE    SUNNY     76  65  68 S12       30.07F
ISLIP          MOSUNNY   73  63  70 S12       30.08S
SHIRLEY        SUNNY     73  62  68 S13       30.09F HAZE
RIVERHEAD        N/A     81  66  61 S2        30.06F
WESTHAMPTON    MOSUNNY   71  60  68 S12       30.11F
EAST HAMPTON   FAIR      67  59  75 S13       30.09F
MONTAUK POINT    N/A     65  59  81 S9G20     30.10F
$$

NYZ052-065-067-271900-
HUDSON VALLEY

CITY           SKY/WX    TMP DP  RH WIND       PRES   REMARKS
WHITE PLAINS   SUNNY     83  65  54 S9        30.05F
NEWBURGH       PTSUNNY   82  70  65 SE8       30.04F
MONTGOMERY     MOSUNNY   84  68  58 SW6       30.01F
POUGHKEEPSIE   MOSUNNY   88  66  48 S7        30.00F HX  90
ALBANY         CLOUDY    85  64  49 S10       30.00F
$$

NJZ001-105-106-008-010-013-015-019>022-104-271900-
NEW JERSEY

CITY           SKY/WX    TMP DP  RH WIND       PRES   REMARKS
NEWARK/LIBERTY MOSUNNY   84  65  52 SE12      30.03F
TETERBORO      SUNNY     90  64  42 S14G23    30.01F HX  91
CALDWELL       MOSUNNY   88  63  43 SW8G16    30.02F
MORRISTOWN     PTSUNNY   88  66  48 SW10G21   30.03F HX  90
SOMERVILLE     MOSUNNY   87  66  49 S10G17    30.01F
SUSSEX         MOSUNNY   87  65  47 SW9       30.02F
ANDOVER          N/A     86  65  49 SW8       30.04F
TRENTON        SUNNY     88  65  46 SW12      30.03F HX  90
MILLVILLE      SUNNY     85  68  56 SW8       30.07F
ATLANTIC CITY  SUNNY     82  65  56 S12       30.07F
WRIGHTSTOWN    MOSUNNY   89  67  48 W9        30.01F HX  92
TOMS RIVER     PTSUNNY   90  64  43 SW13      30.04F HX  91
BELMAR         PTSUNNY   83  68  60 SE7       30.06F
$$

PAZ047>061-062-071-271900-
EASTERN PENNSYLVANIA

CITY           SKY/WX    TMP DP  RH WIND       PRES   REMARKS
PHILADELPHIA   MOSUNNY   88  65  46 SW12      30.05F HX  90
ALLENTOWN      PTSUNNY   86  66  51 SW10      30.03F
SCRANTON       SUNNY     86  65  49 SW9       30.03F
$$

CTZ002-004>006-009-010-012-RIZ004-006-007-MAZ004-011-015-271900-
SOUTHERN NEW ENGLAND
 IN CT

CITY           SKY/WX    TMP DP  RH WIND       PRES   REMARKS
BRADLEY INTL   CLOUDY    86  64  47 SW12      30.02F
HARTFORD       CLOUDY    87  65  47 S9        30.04F
DANBURY        SUNNY     83  66  56 SE10G21   30.06F
WTRBRY/OXFORD  PTSUNNY   82  64  54 S9        30.08F
BRIDGEPORT     MOSUNNY   71  61  70 E12       30.06F
MERIDEN        MOSUNNY   83  64  52 SW12      30.05F
NEW HAVEN      MOSUNNY   77  63  61 E9        30.06F
CHESTER        FAIR      79  64  61 S7        30.08F
GROTON         MOSUNNY   67  62  84 S7        30.08F
WILLIMANTIC    CLOUDY    86  62  44 S12       30.05F

 IN RI

CITY           SKY/WX    TMP DP  RH WIND       PRES   REMARKS
PROVIDENCE     CLOUDY    71  59  65 SE17      30.07F
BLOCK ISLAND   CLOUDY    65  59  81 SW20      30.10F
WESTERLY       CLOUDY    70  58  65 S8        30.09F

 IN MA

CITY           SKY/WX    TMP DP  RH WIND       PRES   REMARKS
BOSTON         CLOUDY    63  56  78 E12       30.08F
WORCESTER      CLOUDY    79  61  53 SE6       30.08F
WESTFIELD      MOSUNNY   86  63  45 S13G18    30.02F
PROVINCETOWN   MOSUNNY   76  62  62 S10       30.09S
NANTUCKET      SUNNY     65  58  78 SW13      30.12F
$$

ANZ330-335-338-340-345-350-353-355-271900-
COASTAL MARINE OBSERVATIONS


STATION/POSITION TIME  SKY/WX   TEMP    WIND        PRES    VSBY  WAVE
                                AIR SEA DIR/SP/G                  HT/PER
                 (UTC)          (F)     (DEG/KT/KT) (MB)    (MI)  (FT/S)
NY HARB ENTRANCE 1650            63 61  170/ 12/ 14 1017.8          2/ 7
20S FIRE ISLAND  1650            61 60  200/ 12/ 14 1018.7          3/ 5
GREAT SOUTH BAY  1730            63 68  200/  8/ 12   N/A
23 SSW MONTAUK P 1750            59 57  210/ 12/ 12 1019.0          3/ 4
15 E BARNEGAT LI 1722               60                N/A           3/ 5
HUDSON CANYON    1650            61 57              1020.4          3/ 5
KINGS POINT      1700            76 60              1017.5
EXECUTION ROCKS  NOT AVBL
CENTRAL LI SOUND 1745            63     100/ 10/ 10   N/A           0
EASTERN LI SOUND 1700            62 54  130/  8/  8   N/A
ROBBINS REEF     1700            69     180/ 17/ 18 1017.0
$$


>>>>>>>>>>>>>>>>>>>>>>>>>>>> KEY <<<<<<<<<<<<<<<<<<<<<<<<<<<
>                                                          <
>     SKY/WX - SKY CONDITION/PRESENT WEATHER               <
>     TMP    - TEMPERATURE IN FAHRENHEIT                   <
>     DP     - DEWPOINT IN FAHRENHEIT                      <
>     RH     - RELATIVE HUMIDITY IN PERCENT                <
>     WIND   - DIRECTION AND SPEED IN MPH                  <
>     PRES   - MEAN SEA LEVEL PRESSURE IN INCHES OF HG     <
>     WCI    - WIND CHILL INDEX                            <
>     VSB    - VISIBILITY IN MILES                         <
>     HX     - HEAT INDEX                                  <
>     TC     - TEMPERATURE IN CELSIUS                      <
>     VRB    - VARIABLE WIND DIRECTION                     <
>                                                          <
>>>>>>>>>>>>>>>>>>>>>>>>>>>> KEY <<<<<<<<<<<<<<<<<<<<<<<<<<<






USA.gov is the U.S. government's official web portal to all federal, state and local government web resources and services.